This is the latest recevied weather packets stored in our database for station/object KB4MOX. If no packets are shown the sender has not sent any weather packets the latest 10 day(s).
| Time | Temp. | Humidity | Pressure | Rain* | Wind** | Luminosity | Snow |
|---|---|---|---|---|---|---|---|
| 1777649320 | 17.22° C | 70% | 1013.8 hPa | 0 mm | - | 335 W/m² | - |
| 1777649018 | 16.67° C | 71% | 1014.2 hPa | 0 mm | - | 225 W/m² | - |
| 1777648716 | 16.67° C | 70% | 1014 hPa | 0 mm | - | 253 W/m² | - |
| 1777648411 | 16.67° C | 71% | 1013.9 hPa | 0 mm | - | 224 W/m² | - |
| 1777648108 | 16.11° C | 72% | 1013.9 hPa | 0 mm | - | 194 W/m² | - |
| 1777647805 | 16.11° C | 73% | 1013.8 hPa | 0 mm | - | 142 W/m² | - |
| 1777647501 | 16.11° C | 74% | 1013.9 hPa | 0 mm | - | 127 W/m² | - |
| 1777647198 | 16.11° C | 74% | 1013.7 hPa | 0 mm | - | 103 W/m² | - |
| 1777646895 | 16.11° C | 74% | 1014 hPa | 0 mm | - | 88 W/m² | - |
| 1777646590 | 16.11° C | 72% | 1013.9 hPa | 0 mm | - | 95 W/m² | - |
| 1777646287 | 15.56° C | 73% | 1013.8 hPa | 0 mm | - | 97 W/m² | - |
| 1777645984 | 15.56° C | 72% | 1013.9 hPa | 0 mm | - | 134 W/m² | - |
| 1777645681 | 15.56° C | 73% | 1013.9 hPa | 0 mm | - | 152 W/m² | - |
| 1777645377 | 15.56° C | 73% | 1013.9 hPa | 0 mm | - | 132 W/m² | - |
| 1777645072 | 15.56° C | 74% | 1013.9 hPa | 0 mm | - | 150 W/m² | - |
| 1777644769 | 15.56° C | 74% | 1013.7 hPa | 0 mm | - | 166 W/m² | - |
| 1777644467 | 15.56° C | 77% | 1013.9 hPa | 0 mm | - | 143 W/m² | - |
| 1777644163 | 15° C | 78% | 1013.9 hPa | 0 mm | - | 141 W/m² | - |
| 1777643859 | 15° C | 78% | 1013.9 hPa | 0 mm | - | 106 W/m² | - |
| 1777643558 | 15° C | 80% | 1014.2 hPa | 0 mm | - | 83 W/m² | - |
| 1777643254 | 15° C | 83% | 1014 hPa | 0 mm | - | 83 W/m² | - |
| 1777642951 | 15° C | 85% | 1014 hPa | 0 mm | - | 50 W/m² | - |
| 1777642647 | 15° C | 85% | 1014.1 hPa | 0 mm | - | 57 W/m² | - |
| 1777642343 | 15° C | 86% | 1014 hPa | 0 mm | - | 55 W/m² | - |
| 1777642040 | 15° C | 85% | 1013.5 hPa | 0 mm | - | 73 W/m² | - |
* Rain latest hour (hover to see other rain measurements)
** Current wind speed in m/s (hover to see current wind gust speed)